sat.trackr.live / text

‹ back to catalog

QIANFAN-42

NORAD 62243 · 2024-232G

PAYLOAD ACTIVE UNKNOWN

§ Identity

Operator
Country
PRC
Launch date
2024-12-05
Launch site
TAISC
Launch vehicle
Mass (kg)
RCS (m²)

External: N2YO · Heavens-Above · Gunter

§ Orbital elements

Epoch: 2026-05-25T03:47:17.527200Z

Period
101.08 min
Inclination
89.0079°
Eccentricity
0.0012624
Mean motion
14.24601843 rev/d
Perigee alt
800.8 km
Apogee alt
818.9 km
Semi-major
7,188.0 km
B*
1.2995e-4
RAAN
18.7591°
Arg perigee
271.5896°
Mean anomaly
88.3851°
Rev number
12,463

§ Raw data

QIANFAN-421 62243U 24232G   26145.15784175  .00000316  00000+0  12995-3 0  99942 62243  89.0079  18.7591 0012624 271.5896  88.3851 14.24601843124638

JSON: /api/v1/satellites/62243 · /tle

For live sub-satellite position, see the globe view (requires WebGL).

§ Visibility from observer

Set your observer location to see the next 7 days of passes ≥ 10°. The values pass through the URL so the page stays shareable.

No JS? Fill the form by hand. The geolocation button needs JavaScript.